sat.trackr.live / text

‹ back to catalog

STARLINK-33575

NORAD 62760 · 2025-015C

PAYLOAD ACTIVE UNKNOWN

§ Identity

Operator
Country
US
Launch date
2025-01-21
Launch site
AFWTR
Launch vehicle
Mass (kg)
RCS (m²)

Purposes: comms

External: N2YO · Heavens-Above · Gunter

§ Orbital elements

Epoch: 2026-05-24T22:48:08.208000Z

Period
93.85 min
Inclination
53.1601°
Eccentricity
0.0000914
Mean motion
15.34412644 rev/d
Perigee alt
462.0 km
Apogee alt
463.3 km
Semi-major
6,840.8 km
B*
6.1655e-4
RAAN
327.7314°
Arg perigee
96.7977°
Mean anomaly
263.3129°
Rev number
7,540

§ Raw data

STARLINK-335751 62760U 25015C   26144.95009500  .00020520  00000+0  61655-3 0  99932 62760  53.1601 327.7314 0000914  96.7977 263.3129 15.34412644 75401

JSON: /api/v1/satellites/62760 · /tle

For live sub-satellite position, see the globe view (requires WebGL).

§ Visibility from observer

Set your observer location to see the next 7 days of passes ≥ 10°. The values pass through the URL so the page stays shareable.

No JS? Fill the form by hand. The geolocation button needs JavaScript.